Terminal Aerodrome Forecast
Issued by NWS

Home | Current Version | Previous Version | Text Only | Print | Product List | Glossary On
Versions: 1 2 3 4 5 6 7 8 9 10 11 12 13 14 15 16 17 18 19 20 21 22 23 24 25 26 27 28 29 30 31 32 33 34 35 36 37 38 39 40 41 42
000
FTPQ31 PGUM 222322
TAFGUM
TAF

TAF
PTPN 222322Z 2300/2324 10011KT P6SM VCSH SCT017 BKN130
      TEMPO 2302/2306 5SM SHRA OVC017=

USA.gov is the U.S. government's official web portal to all federal, state and local government web resources and services.